Regional Weather Roundup
Issued by NWS

Home | Current Version | Previous Version | Text Only | Print | Product List | Glossary On
Versions: 1 2 3 4 5 6 7 8 9 10 11 12 13 14 15 16 17 18 19 20 21 22 23 24 25 26 27 28 29 30 31 32 33 34 35 36 37 38 39 40 41 42 43 44 45 46 47 48 49 50
000
ASUS44 KBMX 241510
RWRAL

ALABAMA REGIONAL WEATHER ROUNDUP
NATIONAL WEATHER SERVICE BIRMINGHAM AL
1000 AM CDT WED MAY 24 2017

NOTE: "FAIR" INDICATES FEW OR NO CLOUDS BELOW 12,000 FEET
WITH NO SIGNIFICANT WEATHER AND/OR OBSTRUCTIONS TO VISIBILITY.

THE REMARK "TC" DENOTES TEMPERATURE IN DEGREES CELSIUS.

ALZ001>011-014-016>018-020-241600-
NORTH ALABAMA

CITY           SKY/WX    TMP DP  RH WIND       PRES   REMARKS
MUSCLE SHOALS  CLOUDY    65  60  84 W20G26    29.49R
HUNTSVILLE     PTSUNNY   67  62  84 SW14G23   29.47F
DECATUR        PTSUNNY   66  61  84 SW13G22   29.47F
HALEYVILLE     CLOUDY    61  58  90 W8G17     29.54R
GADSDEN        PTSUNNY   65  61  87 SW5       29.53F
$$

ALZ012-013-022-023-030>036-040>044-241600-
WEST CENTRAL ALABAMA

CITY           SKY/WX    TMP DP  RH WIND       PRES   REMARKS
TUSCALOOSA     CLOUDY    66  59  78 W10G23    29.56R
$$

ALZ015-024>027-033>036-040>044-241600-
CENTRAL ALABAMA

CITY           SKY/WX    TMP DP  RH WIND       PRES   REMARKS
BIRMINGHAM     PTSUNNY   68  60  75 SW15G26   29.56R
MONTGOMERY     PTSUNNY   74  64  71 VRB7      29.59R
SHELBY CO ARPT PTSUNNY   68  64  87 VRB7      29.55R
MAXWELL AFB    PTSUNNY   72  66  81 S7        29.58R
GREENVILLE     PTSUNNY   73  63  70 SW10      29.61R
$$

ALZ019-021-028-029-037-038-045>048-241600-
EAST CENTRAL ALABAMA

CITY           SKY/WX    TMP DP  RH WIND       PRES   REMARKS
ANNISTON       PTSUNNY   67  64  90 SW14G22   29.53F
ALEXANDER CITY PTSUNNY   69  66  89 SW10G18   29.58R
AUBURN         CLOUDY    69  67  93 S12       29.61R
$$

ALZ051>064-241600-
SOUTHWEST ALABAMA

CITY           SKY/WX    TMP DP  RH WIND       PRES   REMARKS
MOBILE         PTSUNNY   71  60  68 W9        29.67R
BROOKLEY FIELD PTSUNNY   73  64  73 VRB5      29.67R
EVERGREEN        N/A     72  64  76 SW9       29.63R
$$

ALZ049-050-065>069-241600-
SOUTHEAST ALABAMA

CITY           SKY/WX    TMP DP  RH WIND       PRES   REMARKS
DOTHAN         CLOUDY    77  72  84 SW12      29.63S
OZARK          LGT RAIN  75  70  83 W15G22    29.60R
TROY           CLOUDY    73  67  81 W9        29.63R
EUFAULA        PTSUNNY   78  71  79 SW7       29.58S
$$



USA.gov is the U.S. government's official web portal to all federal, state and local government web resources and services.